#timestamp,LO_Frequency,Hit,StdDev 
1583348415.4,286046997.7,N
1583348435.2,286046995.7,N
1583348455.0,286046995.5,N
1583348455.9,286046995.5,N
1583348475.8,286047001.1,N
1583348495.6,286047002.8,N
1583348515.5,286047002.5,N
1583348535.3,286046998.1,N
1583348555.1,286046999.4,N
1583348575.9,286046999.6,N
1583348595.7,286046997.4,N
1583348615.5,286046997.2,N
1583348635.4,286046994.9,N
1583348655.2,286046996.0,N
1583348675.0,286046997.4,N
1583348676.0,286046997.4,N
1583348695.8,286046995.1,N
1583348715.6,286046995.4,N
1583348735.5,286046997.6,N
1583348755.3,286046999.2,N
1583348775.1,286046999.4,N
1583348795.9,286046998.5,N
1583348815.7,286046998.2,N
1583348835.6,286047002.6,N
1583348855.4,286047001.2,N
1583348875.2,286046998.8,N
1583348895.1,286046997.5,N
1583348896.0,286046997.5,N
1583348915.8,286046996.0,N
1583348935.6,286046995.9,N
1583348955.5,286046996.3,N
1583348975.3,286046994.1,N
1583348995.2,286046994.5,N
1583349015.9,286046997.9,N
1583349035.7,286046993.7,N
1583349055.6,286046996.3,N
1583349075.4,286046998.0,N
1583349095.2,286046999.3,N
1583349115.1,286046998.8,N
1583349116.0,286046998.8,N
1583349135.8,286047001.2,N
1583349155.7,286047000.1,N
1583349175.5,286047000.1,N
1583349195.3,286046998.8,N
1583349215.2,286046996.8,N
1583349265.0,286046995.7,E
1583349275.9,286046997.8,N
1583349295.7,286047001.6,P
1583349315.5,286047002.1,N
1583349335.4,286047004.3,N
1583349355.2,286047001.6,N
1583349375.1,286047003.4,N
1583349376.0,286047003.4,N
1583349395.8,286047007.1,Y
1583349415.6,286047005.5,P
1583349435.5,286047004.8,N
1583349455.3,286047003.4,N
1583349475.2,286047001.7,N
1583349495.9,286047002.3,N
1583349515.7,286047002.4,N
1583349535.6,286047001.8,N
1583349555.4,286046998.1,N
1583349575.2,286046999.4,N
1583349595.1,286046997.1,N
1583349596.0,286046997.1,N
1583349615.8,286046997.6,N
1583349635.7,286046997.4,N
1583349655.5,286046998.0,N
1583349675.3,286046997.4,N
1583349695.2,286046999.4,N
1583349715.0,286046997.9,N
1583349715.9,286046997.9,N
1583349735.7,286046997.7,N
1583349755.6,286046995.3,N
1583349775.4,286046995.1,N
1583349795.3,286046993.3,N
1583349815.1,286046994.2,N
1583349816.0,286046994.2,N
1583349835.8,286046993.2,N
1583349855.7,286046994.5,N
1583349875.5,286046997.7,N
1583349895.4,286046996.2,N
1583349915.2,286046995.6,N
1583349935.0,286046996.5,N
1583349935.9,286046996.5,N
1583349955.8,286046999.4,N
1583349975.6,286046998.8,N
1583349995.4,286047002.7,N
1583350015.3,286047000.0,N
1583350035.1,286047001.1,N
1583350055.9,286046998.6,N
1583350075.7,286046999.1,N
1583350095.5,286046997.5,N
1583350115.4,286046993.4,Y
1583350135.2,286046986.3,P
1583350155.0,286046999.5,N
1583350155.9,286046999.5,N
1583350175.8,286046998.1,N
1583350195.6,286046999.0,N
1583350215.5,286047000.4,N
1583350235.3,286047002.8,N
1583350255.1,286047001.5,N
1583350275.9,286047003.5,N
1583350295.7,286047005.6,N
1583350315.5,286047003.1,N
1583350335.4,286047001.5,N
1583350355.2,286046998.1,N
1583350375.1,286047000.8,N
1583350376.0,286047000.8,N
1583350395.8,286046999.1,N
1583350415.6,286046998.0,N
1583350435.5,286046997.8,N
1583350455.3,286047001.2,N
1583350475.2,286046998.9,N
1583350495.9,286047002.7,N
1583350515.7,286047000.8,N
1583350535.6,286047002.4,N
1583350555.4,286047003.9,N
1583350575.2,286047007.1,N
1583350595.1,286047008.0,N
1583350596.0,286047008.0,N
1583350615.8,286047009.1,N
1583350635.7,286047004.8,N
1583350655.5,286047002.9,N
1583350675.3,286047001.5,N
1583350695.2,286047000.3,N
1583350715.0,286047000.8,N
1583350715.9,286047000.8,N
1583350735.8,286047000.9,N
1583350755.6,286047001.1,N
1583350775.4,286046998.7,N
1583350795.3,286046998.4,N
1583350815.1,286047000.4,N
1583350835.8,286047000.4,N
1583350855.7,286047000.1,N
1583350875.5,286047000.3,N
1583350895.4,286047001.5,N
1583350915.2,286047005.2,N
1583350935.0,286047003.5,N
1583350935.9,286047003.5,N
1583350955.8,286047001.9,N
1583350975.6,286047002.5,N
1583350995.4,286046998.1,N
1583351015.3,286046997.0,N
1583351035.1,286047011.9,Y
1583351055.9,286046999.9,P
1583351075.7,286047004.0,P
1583351095.5,286047002.6,N
1583351115.4,286047003.9,N
1583351135.2,286047004.5,Y
1583351155.1,286047004.8,P
1583351156.0,286047004.8,P
1583351175.8,286047004.2,P
1583351195.6,286047001.8,N
1583351215.5,286047000.0,N
1583351235.3,286046999.3,N
1583351255.1,286046997.3,N
1583351275.9,286046996.0,N
1583351295.7,286046994.1,N
1583351315.6,286046995.8,N
1583351335.4,286046995.2,N
1583351355.2,286046996.8,N
1583351375.1,286046999.4,N
1583351376.0,286046999.4,N
1583351395.8,286047000.6,N
1583351415.6,286047000.9,N
1583351435.5,286047000.6,N
1583351455.3,286047002.0,N
1583351475.2,286047003.8,N
1583351495.9,286047002.1,N
1583351515.7,286047000.1,N
1583351535.6,286047000.7,N
1583351555.4,286046998.9,N
1583351575.3,286046998.0,N
1583351595.1,286046995.7,N
1583351596.0,286046995.7,N
1583351615.8,286046998.0,N
1583351635.7,286046996.7,N
1583351655.5,286046995.8,N
1583351675.3,286046997.7,N
1583351695.2,286046997.3,N
1583351715.0,286046998.0,N
1583351715.9,286046998.0,N
1583351735.8,286047002.4,N
1583351755.6,286047001.4,N
1583351775.4,286047001.8,N
1583351795.3,286047003.2,N
1583351815.1,286047001.9,N
1583351835.9,286047001.3,N
1583351855.7,286046999.9,N
1583351875.5,286046998.6,N
1583351895.4,286046997.1,N
1583351915.2,286046995.6,N
1583351935.0,286046994.1,N
1583351936.0,286046994.1,N
1583351955.8,286046998.0,N
1583351975.6,286046997.0,N
1583351995.5,286046998.5,N
